PAL1024 RPMD-RPVM

Flight info

Callsign PAL1024
Flight time N/A
Altitude 28000
Route JOFER3R JOFER W8 BOHOL BOHOL3P
Aircraft A333/H-SDE3GHIJ2J3J5M1RVWXY/LB2D1

Departure

Time 2026-05-01 13:40
Airport Francisco Bangoy International Airport (RPMD)

Arrival

Time N/A
Airport Mactan Cebu International Airport (RPVM)
Time Latitude Longitude Altitude Speed Heading
2026-05-01 13:07 7.12940 125.64557 116 ft 0 kts 319°
2026-05-01 13:28 7.12939 125.64558 116 ft 1 kts 319°
2026-05-01 13:29 7.12917 125.64577 116 ft 2 kts 319°
2026-05-01 13:29 7.12899 125.64593 116 ft 2 kts 319°
2026-05-01 13:30 7.12889 125.64625 116 ft 0 kts 229°
2026-05-01 13:31 7.12893 125.64629 116 ft 0 kts 228°
2026-05-01 13:34 7.12886 125.64621 116 ft 2 kts 230°
2026-05-01 13:35 7.12837 125.64564 116 ft 9 kts 229°
2026-05-01 13:35 7.12790 125.64509 116 ft 12 kts 229°
2026-05-01 13:35 7.12708 125.64450 116 ft 9 kts 177°
2026-05-01 13:36 7.12645 125.64492 116 ft 12 kts 139°
2026-05-01 13:36 7.12580 125.64547 116 ft 15 kts 149°
2026-05-01 13:36 7.12423 125.64434 117 ft 18 kts 231°
2026-05-01 13:37 7.12335 125.64328 117 ft 22 kts 230°
2026-05-01 13:37 7.12222 125.64197 117 ft 25 kts 229°
2026-05-01 13:37 7.12044 125.63995 117 ft 29 kts 230°
2026-05-01 13:37 7.11887 125.63803 117 ft 18 kts 230°
2026-05-01 13:38 7.11752 125.63639 117 ft 12 kts 231°
2026-05-01 13:38 7.11735 125.63563 117 ft 7 kts 256°
2026-05-01 13:38 7.11708 125.63545 117 ft 5 kts 171°
2026-05-01 13:39 7.11693 125.63581 117 ft 8 kts 78°
2026-05-01 13:39 7.11735 125.63629 117 ft 10 kts 46°
2026-05-01 13:39 7.11746 125.63642 117 ft 0 kts 50°
2026-05-01 13:40 7.11788 125.63693 117 ft 34 kts 50°
2026-05-01 13:40 7.12252 125.64227 117 ft 136 kts 49°
2026-05-01 13:40 7.13915 125.66179 1576 ft 182 kts 50°
2026-05-01 13:41 7.17559 125.66159 4679 ft 203 kts 344°
2026-05-01 13:41 7.18968 125.65799 5672 ft 216 kts 351°
2026-05-01 13:41 7.20435 125.65540 6819 ft 220 kts 354°
2026-05-01 13:42 7.21974 125.65323 7895 ft 227 kts 356°
2026-05-01 13:42 7.23532 125.65122 8948 ft 232 kts 356°
2026-05-01 13:42 7.25096 125.64928 9820 ft 227 kts 357°
2026-05-01 13:42 7.26717 125.64735 10216 ft 239 kts 356°
2026-05-01 13:43 7.28380 125.64532 10799 ft 242 kts 356°
2026-05-01 13:43 7.30066 125.64329 11401 ft 244 kts 357°
2026-05-01 13:43 7.31763 125.64124 11972 ft 247 kts 357°
2026-05-01 13:43 7.33471 125.63918 12538 ft 249 kts 357°
2026-05-01 13:44 7.35209 125.63710 13090 ft 252 kts 356°
2026-05-01 13:44 7.36970 125.63496 13629 ft 255 kts 357°
2026-05-01 13:44 7.38718 125.63287 14158 ft 257 kts 357°
2026-05-01 13:44 7.38878 125.63268 14205 ft 257 kts 357°
2026-05-01 13:45 7.40599 125.63057 14738 ft 259 kts 357°
2026-05-01 13:45 7.42389 125.62841 15262 ft 261 kts 357°
2026-05-01 13:45 7.44230 125.62620 15729 ft 266 kts 357°
2026-05-01 13:46 7.46086 125.62336 16207 ft 272 kts 346°
2026-05-01 13:46 7.47767 125.61394 16636 ft 282 kts 323°
2026-05-01 13:46 7.49259 125.60129 17148 ft 284 kts 325°
2026-05-01 13:46 7.50814 125.58878 17596 ft 288 kts 325°
2026-05-01 13:47 7.52402 125.57600 18043 ft 292 kts 325°
2026-05-01 13:47 7.54014 125.56303 18501 ft 296 kts 325°
2026-05-01 13:47 7.55649 125.54990 18948 ft 300 kts 325°
2026-05-01 13:47 7.57294 125.53668 19398 ft 303 kts 325°
2026-05-01 13:48 7.58948 125.52339 19820 ft 307 kts 325°
2026-05-01 13:48 7.60628 125.50993 20245 ft 311 kts 325°
2026-05-01 13:48 7.62363 125.49603 20668 ft 315 kts 325°
2026-05-01 13:48 7.64078 125.48226 21075 ft 319 kts 324°
2026-05-01 13:49 7.65835 125.46815 21476 ft 323 kts 324°
2026-05-01 13:49 7.67619 125.45383 21874 ft 326 kts 324°
2026-05-01 13:49 7.69388 125.43962 22261 ft 330 kts 324°
2026-05-01 13:49 7.71216 125.42493 22647 ft 334 kts 324°
2026-05-01 13:50 7.73041 125.41026 23043 ft 337 kts 324°
2026-05-01 13:50 7.74874 125.39554 23420 ft 341 kts 324°
2026-05-01 13:50 7.76734 125.38058 23797 ft 344 kts 324°
2026-05-01 13:50 7.78633 125.36531 24179 ft 348 kts 324°
2026-05-01 13:51 7.80525 125.35010 24567 ft 351 kts 324°
2026-05-01 13:51 7.82465 125.33452 24948 ft 355 kts 324°
2026-05-01 13:51 7.83788 125.32388 25187 ft 357 kts 324°
2026-05-01 13:51 7.85760 125.30801 25550 ft 361 kts 324°
2026-05-01 13:52 7.87729 125.29218 25913 ft 364 kts 324°
2026-05-01 13:52 7.89733 125.27605 26272 ft 368 kts 324°
2026-05-01 13:52 7.91757 125.25978 26607 ft 372 kts 323°
2026-05-01 13:52 7.93779 125.24351 26942 ft 376 kts 323°
2026-05-01 13:53 7.95873 125.22665 27276 ft 380 kts 323°
2026-05-01 13:53 8.00454 125.19996 27973 ft 383 kts 335°
2026-05-01 13:53 8.02828 125.18758 28326 ft 386 kts 335°
2026-05-01 13:54 8.05253 125.17496 28502 ft 393 kts 335°